Regional Weather Roundup
Issued by NWS

Home | Current Version | Previous Version | Graphics & Text | Print | Product List | Glossary On
Versions: 1 2 3 4 5 6 7 8 9 10 11 12 13 14 15 16 17 18 19 20 21 22 23 24 25 26 27 28 29 30 31 32 33 34 35 36 37 38 39 40 41 42 43 44 45 46 47 48 49 50
000
ASUS43 KIND 240609
RWRIN

WEATHER ROUNDUP FOR INDIANA
NATIONAL WEATHER SERVICE INDIANAPOLIS IN
100 AM EST FRI FEB 24 2017

NOTE: "FAIR" INDICATES FEW OR NO CLOUDS BELOW 12,000 FEET WITH NO
SIGNIFICANT WEATHER AND/OR OBSTRUCTIONS TO VISIBILITY.

* - STATION DOES NOT REPORT WEATHER SUCH AS PRECIPITATION OR FOG.

+ - STATION NOT QUALITY CONTROLLED BY THE NATIONAL WEATHER SERVICE.
    USE DATA WITH CAUTION...ESPECIALLY DEWPOINT AND RELATIVE
    HUMIDITY OBSERVATIONS.

INZ001>003-010>013-019-020-240700-
NORTHWEST INDIANA

CITY           SKY/WX    TMP DP  RH WIND       PRES   REMARKS
GARY /AIRPORT/ CLOUDY    40  39  97 NE7       29.65F
KNOX *+        CLOUDY    50  34  53 E9        29.64F
LA PORTE +     CLOUDY    46  45  96 E7        29.66F FOG
6HR MIN TEMP:  38; 6HR MAX TEMP:  46; 6HR PCP:  0.09;

MICHIGAN CITY+ CLOUDY    46  46 100 E3        29.65F FOG
MONTICELLO +   CLOUDY    52  48  87 E3        29.64F
6HR MIN TEMP:  50; 6HR MAX TEMP:  52;

RENSSELAER +   LGT RAIN  46  45  93 SE8       29.63F
VALPARAISO     MOCLDY    46  45  96 E9        29.64F FOG
6HR MIN TEMP:  39; 6HR MAX TEMP:  46; 6HR PCP:  0.09;


$$

LMZ046-743>745-240700-
SOUTHERN LAKE MICHIGAN

STATION/POSITION TIME  TEMP    WIND        PRES    WAVE
                       AIR SEA DIR/SP/G            HT
                 (UTC) (F)     (DEG/KT/KT) (MB)    (FT)
BURNS HARBOR     0540   36     360/  7/ 12 1005.1F
MICHIGAN CITY    0540   40      30/  4/  6   N/A

$$

INZ004-005-014>016-021>024-240700-
NORTH CENTRAL INDIANA

CITY           SKY/WX    TMP DP  RH WIND       PRES   REMARKS
GOSHEN         CLOUDY    52  45  77 SE10      29.69F
6HR MIN TEMP:  48; 6HR MAX TEMP:  52; 6HR PCP:  0.10;

LOGANSPORT +   CLOUDY    52  52 100 CALM      29.67S
PERU/GRISSOM   CLOUDY    57  57 100 SE8       29.66S
6HR MIN TEMP:  54; 6HR MAX TEMP:  57;

ROCHESTER +    MOCLDY    55  52  88 E7        29.67F
SOUTH BEND     MOCLDY    48  46  93 E12       29.66F
6HR MIN TEMP:  41; 6HR MAX TEMP:  48; 6HR PCP:  0.15;

WARSAW +       RAIN      54  46  76 E5        29.69F

$$

INZ006>009-017-018-025>027-240700-
NORTHEAST INDIANA

CITY           SKY/WX    TMP DP  RH WIND       PRES   REMARKS
ANGOLA *+      CLOUDY    46  45  93 E12       29.73R
AUBURN +       CLOUDY    52  45  76 E13       29.73R
FORT WAYNE     CLOUDY    53  50  89 NE5       29.70S
6HR MIN TEMP:  53; 6HR MAX TEMP:  57; 6HR PCP: TRACE;

HUNTINGTON +   CLOUDY    57  55  92 SE6       29.69S
6HR MIN TEMP:  55; 6HR MAX TEMP:  57;

KENDALLVILLE + CLOUDY    51  47  85 E7        29.72R FOG

$$

INZ028-029-035-036-043>045-051>053-240700-
WEST CENTRAL INDIANA

CITY           SKY/WX    TMP DP  RH WIND       PRES   REMARKS
LAFAYETTE      CLOUDY    57  54  89 NE3       29.65R
6HR MIN TEMP:  50; 6HR MAX TEMP:  57;

TERRE HAUTE    CLOUDY    60  53  77 SE10      29.62F
6HR MIN TEMP:  60; 6HR MAX TEMP:  64;


$$

INZ030>032-037>040-046>048-054>057-064-065-240700-
CENTRAL INDIANA

CITY           SKY/WX    TMP DP  RH WIND       PRES   REMARKS
CP ATTERBURY + CLOUDY    59  54  82 S3        29.69S
FRANKFORT +    MOCLDY    58  55  89 SE8       29.66F
6HR MIN TEMP:  58; 6HR MAX TEMP:  61;

GREENWOOD *+   CLOUDY    59  56  89 S8        29.69R
6HR MIN TEMP:  59; 6HR MAX TEMP:  65;

INDIANAPOLIS   CLOUDY    60  55  83 SE13      29.66S
6HR MIN TEMP:  60; 6HR MAX TEMP:  65;

-EAGLE CREEK   MOCLDY    62  54  74 S9        29.65F
6HR MIN TEMP:  61; 6HR MAX TEMP:  66;

KOKOMO +       MOCLDY    58  54  86 S9        29.69S
6HR MIN TEMP:  54; 6HR MAX TEMP:  58; 6HR PCP: TRACE;

MARION +       MOCLDY    56  53  88 S6        29.69S
MT COMFORT *+  PTCLDY    59  54  82 S7        29.68S
SHELBYVILLE    MOCLDY    62  54  74 S13       29.68S
6HR MIN TEMP:  60; 6HR MAX TEMP:  64;

ZIONSVILLE +   CLOUDY    59  55  86 S9        29.67S
6HR MIN TEMP:  56; 6HR MAX TEMP:  59;


$$

INZ033-034-041-042-049-050-058-059-240700-
EAST CENTRAL INDIANA

CITY           SKY/WX    TMP DP  RH WIND       PRES   REMARKS
MUNCIE         PTCLDY    61  54  77 S7        29.69S
6HR MIN TEMP:  55; 6HR MAX TEMP:  61;


$$

INZ060-061-067>069-081>083-085>088-240700-
SOUTHWEST INDIANA

CITY           SKY/WX    TMP DP  RH WIND       PRES   REMARKS
EVANSVILLE     CLOUDY    63  54  72 S8        29.66S
6HR MIN TEMP:  63; 6HR MAX TEMP:  67;

HUNTINGBURG *+ CLOUDY    64  55  72 S12       29.68S
6HR MIN TEMP:  61; 6HR MAX TEMP:  66;

WASHINGTON +   CLOUDY    60  53  75 S8        29.65S
6HR MIN TEMP:  57; 6HR MAX TEMP:  62;


$$

INZ062-063-066-070>080-084-089>092-240700-
SOUTH CENTRAL AND SOUTHEAST INDIANA

CITY           SKY/WX    TMP DP  RH WIND       PRES   REMARKS
BEDFORD +      CLOUDY   N/A N/A N/A S8        29.68S
BLOOMINGTON    CLOUDY    60  53  77 SE8       29.66F
6HR MIN TEMP:  59; 6HR MAX TEMP:  63;

MADISON *+     CLOUDY    61  54  77 SE3       29.73S
NORTH VERNON + MOCLDY    63  57  82 SE7       29.71S
SEYMOUR +      CLOUDY    61  55  82 SE8       29.69F

$$





USA.gov is the U.S. government's official web portal to all federal, state and local government web resources and services.